Date,TemperatureHighF,TemperatureAvgF,TemperatureLowF,DewpointHighF,DewpointAvgF,DewpointLowF,HumidityHigh,HumidityAvg,HumidityLow,PressureMaxIn,PressureMinIn,WindSpeedMaxMPH,WindSpeedAvgMPH,GustSpeedMaxMPH,PrecipitationSumIn
2013-1-1,48.4,41.0,30.4,33.6,27.1,20.5,96,61,36,30.32,30.24,18,8,19,0.00
2013-1-2,51.6,43.5,33.6,29.1,24.1,19.0,76,47,36,30.28,30.17,18,6,20,0.00
2013-1-3,52.2,41.9,33.1,36.0,29.1,23.5,89,61,44,30.30,30.18,10,3,10,0.00
2013-1-4,53.1,43.3,35.1,36.0,31.1,27.5,86,63,43,30.32,30.22,11,3,11,0.00
2013-1-5,44.1,39.5,32.4,41.9,37.1,28.8,99,91,77,30.28,30.10,18,2,18,0.49
2013-1-6,45.9,41.1,37.0,42.4,39.2,35.8,99,93,83,30.21,30.10,18,4,20,0.04
2013-1-7,55.2,47.1,36.5,48.4,42.3,34.3,98,84,72,30.28,30.19,11,2,12,0.00
2013-1-8,60.6,50.0,40.8,50.5,44.5,39.6,99,83,52,30.25,30.14,14,3,14,0.00
2013-1-9,45.3,40.7,34.3,45.1,40.0,30.9,100,97,87,30.17,29.98,23,3,23,0.06
2013-1-10,44.8,36.4,28.8,34.5,29.6,23.9,96,77,55,30.21,30.07,13,2,13,0.00
2013-1-11,44.4,35.8,27.3,35.6,29.6,23.4,93,78,62,30.27,30.16,13,2,13,0.00
2013-1-12,42.8,36.1,27.1,29.8,24.5,17.4,91,64,46,30.27,30.17,17,4,17,0.00
2013-1-13,44.2,37.0,26.2,17.6,13.3,8.6,65,38,26,30.29,30.21,24,6,30,0.00
2013-1-14,48.6,40.6,34.5,22.8,14.0,7.9,55,34,26,30.42,30.27,32,8,32,0.00
2013-1-15,52.2,40.5,30.7,34.3,25.8,17.1,89,57,35,30.51,30.42,16,3,19,0.00
2013-1-16,57.9,51.1,39.9,37.8,27.2,22.6,72,40,28,30.45,30.27,26,7,26,0.00
2013-1-17,62.2,55.5,49.5,28.8,20.7,13.3,37,26,20,30.27,30.18,27,10,27,0.00
2013-1-18,61.0,53.8,48.7,29.7,22.3,16.9,34,29,24,30.25,30.16,20,8,20,0.00
2013-1-19,60.1,52.7,43.3,29.7,21.3,15.4,51,30,24,30.28,30.18,22,7,22,0.00
2013-1-20,60.8,50.7,37.0,30.4,22.7,15.4,64,36,22,30.25,30.16,16,5,16,0.00
2013-1-21,61.9,53.2,36.9,34.2,24.6,18.1,65,34,23,30.21,30.13,18,6,19,0.00
2013-1-22,58.8,50.6,43.7,38.7,29.3,20.7,71,45,30,30.14,30.03,13,4,13,0.00
2013-1-23,54.1,47.2,44.2,47.7,41.2,33.1,99,81,48,30.12,29.99,11,2,12,0.51
2013-1-24,54.7,50.3,46.8,51.4,48.3,46.6,99,93,88,30.21,30.09,14,5,14,0.02
2013-1-25,57.7,52.1,46.9,52.5,49.4,45.5,97,91,81,30.21,30.06,9,2,10,0.00
2013-1-26,50.5,45.2,37.6,48.6,40.9,34.0,99,85,64,30.06,29.96,17,3,17,0.01
2013-1-27,48.6,39.3,29.7,34.3,31.3,27.1,97,74,51,30.20,30.04,12,2,12,0.00
2013-1-28,51.3,41.3,30.9,39.6,34.4,28.8,94,77,61,30.31,30.17,11,2,11,0.00
2013-1-29,58.8,47.1,32.7,41.4,35.2,30.6,94,66,41,30.39,30.30,19,4,19,0.00
2013-1-30,64.8,54.5,41.2,46.2,39.0,30.7,92,58,28,30.35,30.26,22,6,22,0.00
2013-1-31,62.1,51.9,41.4,45.5,38.4,32.0,95,62,43,30.30,30.20,16,4,16,0.00
2013-2-1,61.3,51.8,40.8,42.3,37.6,33.3,85,59,43,30.25,30.16,15,5,15,0.00
2013-2-2,60.3,49.9,39.4,47.5,40.7,35.4,98,72,53,30.31,30.23,10,2,10,0.00
2013-2-3,57.7,46.4,37.8,48.4,42.5,37.0,99,87,56,30.26,30.17,11,2,11,0.01
2013-2-4,58.5,46.9,37.0,48.6,42.0,35.4,97,84,51,30.19,30.08,8,2,8,0.00
2013-2-5,53.6,42.2,33.4,46.4,40.1,32.7,100,93,74,30.18,30.05,17,3,18,0.01
2013-2-6,53.4,43.6,34.5,41.5,37.3,31.1,96,80,53,30.21,30.13,14,3,14,0.00
2013-2-7,47.1,40.9,36.1,41.2,37.3,33.4,99,87,61,30.17,29.99,15,4,15,0.21
2013-2-8,51.3,41.5,30.7,36.3,28.9,20.8,98,65,32,30.03,29.96,19,6,20,0.00
2013-2-9,54.0,43.9,33.1,30.6,23.1,17.8,79,46,26,30.11,30.01,23,6,25,0.00
2013-2-10,58.3,49.1,32.7,34.3,27.2,22.3,77,43,28,30.13,30.04,21,7,21,0.00
2013-2-11,60.3,49.1,36.5,34.2,27.2,21.9,81,44,26,30.25,30.09,24,6,24,0.00
2013-2-12,57.4,45.1,34.3,40.3,34.9,29.8,90,69,46,30.39,30.24,14,3,14,0.00
2013-2-13,61.5,50.8,37.8,46.0,38.2,32.0,91,64,38,30.35,30.22,15,4,15,0.00
2013-2-14,66.4,59.5,52.7,38.7,34.1,30.2,55,39,30,30.25,30.18,24,10,26,0.00
2013-2-15,67.5,56.2,42.3,42.8,33.9,27.3,84,46,27,30.28,30.21,24,6,24,0.00
2013-2-16,65.8,55.8,42.4,45.5,39.4,33.4,84,56,35,30.27,30.03,10,3,10,0.00
2013-2-17,61.2,50.6,38.7,44.1,36.3,25.0,88,60,25,30.04,29.97,17,4,18,0.00
2013-2-18,47.1,40.4,35.2,42.1,37.7,32.5,99,90,75,30.01,29.92,16,4,16,0.00
2013-2-19,42.6,36.9,33.1,37.8,33.3,28.4,99,87,65,29.95,29.75,19,5,19,0.18
2013-2-20,53.4,43.2,32.5,36.0,30.9,26.6,92,63,37,30.07,29.86,23,5,23,0.00
2013-2-21,56.5,43.7,29.7,33.4,29.4,21.6,95,60,27,30.21,30.06,27,4,27,0.00
2013-2-22,58.6,50.0,41.7,39.6,34.7,29.5,81,57,40,30.27,30.17,17,5,17,0.00
2013-2-23,53.8,45.0,34.9,39.6,28.5,16.5,94,58,26,30.27,30.14,20,5,20,0.00
2013-2-24,60.4,48.2,39.7,31.8,22.8,16.5,68,38,20,30.28,30.19,25,6,25,0.00
2013-2-25,60.8,45.7,34.3,42.3,34.5,28.9,91,68,32,30.26,30.20,13,2,13,0.00
2013-2-26,63.9,50.4,38.1,31.3,22.1,16.0,75,35,17,30.25,30.19,24,7,26,0.00
2013-2-27,63.1,50.9,37.9,40.5,31.8,21.4,70,49,32,30.38,30.24,14,2,14,0.00
2013-2-28,65.5,54.6,45.0,52.3,46.1,39.6,92,74,52,30.45,30.37,16,2,16,0.00
2013-3-1,69.1,55.9,43.3,50.5,46.4,41.4,96,72,42,30.44,30.27,10,3,11,0.00
2013-3-2,65.8,56.0,46.8,51.8,48.0,44.2,95,76,58,30.27,30.07,9,2,9,0.00
2013-3-3,61.0,51.0,41.9,48.9,45.5,39.9,98,83,57,30.08,30.01,13,3,14,0.00
2013-3-4,54.7,44.8,38.5,48.9,42.1,37.2,99,91,70,30.14,30.05,11,3,11,0.01
2013-3-5,48.0,41.7,34.5,43.2,39.0,33.4,99,90,77,30.06,29.78,25,5,32,0.34
2013-3-6,48.4,42.1,35.4,43.3,38.5,33.3,99,87,63,30.07,29.78,26,6,26,0.30
2013-3-7,47.5,40.5,31.3,38.3,34.7,30.2,98,81,66,30.02,29.91,15,4,15,0.01
2013-3-8,56.7,46.9,36.9,39.9,34.9,27.9,92,64,44,30.04,29.87,15,4,15,0.00
2013-3-9,64.6,52.1,39.7,39.7,33.5,24.6,90,52,23,30.34,30.04,22,6,23,0.00
2013-3-10,67.5,57.0,43.9,43.5,32.1,23.2,74,40,25,30.35,30.25,18,5,17,0.00
2013-3-11,68.5,56.7,41.5,46.0,38.7,31.5,82,53,32,30.27,30.12,14,4,15,0.00
2013-3-12,72.0,58.6,45.0,52.3,45.9,39.7,89,65,43,30.17,30.09,10,3,12,0.00
2013-3-13,75.2,61.3,50.5,54.3,49.0,44.8,87,66,36,30.17,30.08,11,3,12,0.00
2013-3-14,68.5,57.0,47.5,54.9,46.1,37.6,95,70,35,30.17,30.08,12,2,12,0.00
2013-3-15,70.2,59.1,45.9,50.2,43.0,37.2,80,56,38,30.13,30.03,15,3,17,0.00
2013-3-16,68.5,57.9,47.5,49.1,40.5,36.1,81,54,32,30.10,30.02,22,3,22,0.00
2013-3-17,65.5,52.3,37.9,42.4,37.1,30.6,84,58,33,30.15,30.04,10,2,10,0.00
2013-3-18,62.4,53.4,41.5,47.1,41.6,35.4,87,65,42,30.12,30.03,11,3,11,0.00
2013-3-19,58.8,51.2,43.0,48.4,41.1,30.4,95,69,41,30.12,30.05,13,2,14,0.11
2013-3-20,51.4,47.2,44.1,51.4,46.8,42.6,100,99,93,30.14,30.05,14,4,14,0.43
2013-3-21,60.8,49.1,39.9,45.7,39.6,31.6,100,72,45,30.14,30.04,18,5,20,0.01
2013-3-22,62.1,51.8,45.0,33.1,22.2,11.5,51,33,16,30.14,30.06,25,10,25,0.00
2013-3-23,64.6,53.4,45.1,39.6,28.9,19.0,61,39,27,30.16,30.05,25,6,25,0.00
2013-3-24,66.4,55.3,41.7,48.6,41.2,32.7,80,60,38,30.09,29.97,11,3,11,0.00
2013-3-25,57.4,48.5,38.8,48.7,42.8,36.7,96,81,60,30.01,29.93,13,3,13,0.00
2013-3-26,62.8,50.2,39.0,49.5,43.3,37.8,98,79,56,30.01,29.95,16,3,16,0.00
2013-3-27,54.5,49.5,45.0,49.8,46.3,42.3,97,89,81,30.02,29.94,11,4,12,0.00
2013-3-28,58.8,50.6,45.0,53.2,48.1,43.9,99,91,78,30.12,30.02,8,2,8,0.04
2013-3-29,71.1,59.0,51.6,53.6,48.9,45.7,87,71,44,30.12,30.03,17,4,17,0.00
2013-3-30,61.3,54.9,49.6,55.2,50.5,47.3,96,85,76,30.06,29.98,12,3,12,0.06
2013-3-31,58.1,51.1,48.0,53.1,49.6,46.9,99,95,78,30.09,29.99,14,2,14,0.30
2013-4-1,57.6,51.1,46.0,53.6,49.4,45.1,100,94,80,30.17,30.06,12,2,12,0.10
2013-4-2,64.2,54.1,43.9,55.9,49.6,43.3,99,85,66,30.19,30.09,13,3,13,0.01
2013-4-3,68.7,56.7,45.3,57.6,50.6,44.6,98,81,52,30.13,29.99,11,3,11,0.00
2013-4-4,53.6,49.8,46.2,53.6,49.5,45.7,100,99,87,30.13,29.96,12,4,15,0.74
2013-4-5,56.3,50.5,47.5,52.5,49.0,46.8,100,95,81,30.19,30.12,13,4,14,0.09
2013-4-6,61.9,51.8,46.9,53.1,48.5,44.8,100,89,66,30.20,30.13,15,4,15,0.00
2013-4-7,57.6,49.1,43.9,53.6,47.2,42.3,100,93,79,30.17,29.80,20,5,23,0.13
2013-4-8,62.4,50.5,39.2,43.7,32.5,15.4,98,55,17,30.07,29.77,31,7,31,0.00
2013-4-9,69.3,59.0,49.1,36.9,30.2,23.5,45,35,19,30.14,30.07,22,8,23,0.00
2013-4-10,79.2,67.8,58.1,53.4,44.7,33.8,69,44,32,30.19,30.00,22,7,22,0.00
2013-4-11,72.7,59.7,49.5,48.2,41.7,31.3,80,54,25,30.01,29.83,20,4,21,0.00
2013-4-12,72.3,59.3,45.7,51.8,42.7,33.4,82,56,33,29.91,29.82,15,3,15,0.00
2013-4-13,68.9,57.2,45.7,50.2,43.9,37.4,84,63,45,29.88,29.80,17,3,17,0.00
2013-4-14,67.8,53.1,44.1,46.4,37.3,25.5,89,57,33,29.91,29.82,25,5,25,0.00
2013-4-15,55.2,45.7,36.7,41.7,35.7,28.0,98,71,45,29.96,29.83,22,5,22,0.00
2013-4-16,60.3,50.7,42.4,28.2,24.7,18.0,55,38,22,30.20,29.96,26,10,27,0.00
2013-4-17,62.8,53.9,46.2,29.3,24.5,16.9,49,33,17,30.30,30.20,29,10,31,0.00
2013-4-18,72.3,60.6,50.5,41.9,33.0,23.4,66,36,26,30.28,30.19,23,5,23,0.00
2013-4-19,75.7,61.4,46.8,52.5,45.1,38.8,85,58,37,30.23,30.07,17,3,17,0.00
2013-4-20,78.6,64.6,53.2,47.1,38.9,30.0,69,40,20,30.10,29.97,22,7,23,0.00
2013-4-21,82.2,69.2,52.0,49.5,40.6,32.5,72,37,19,30.04,29.92,17,5,17,0.00
2013-4-22,82.2,71.6,61.3,46.2,34.4,20.3,56,28,11,29.96,29.86,33,8,33,0.00
2013-4-23,79.9,66.0,56.7,44.8,27.3,14.7,56,25,12,29.92,29.83,39,10,41,0.00
2013-4-24,77.2,61.8,43.7,52.5,36.7,23.5,95,46,17,29.89,29.80,26,8,26,0.00
2013-4-25,63.9,50.8,41.9,51.3,46.0,41.7,100,85,61,30.12,29.89,18,6,18,0.00
2013-4-26,73.6,58.4,43.3,55.8,49.5,41.7,97,75,44,30.22,30.11,14,3,14,0.00
2013-4-27,80.1,64.8,46.9,57.9,51.1,40.8,94,64,26,30.20,30.04,13,3,13,0.00
2013-4-28,83.5,69.2,54.0,57.4,49.5,40.8,78,52,32,30.04,29.88,16,3,16,0.00
2013-4-29,85.3,74.2,59.7,54.0,47.1,39.4,75,39,28,29.89,29.73,20,6,20,0.00
2013-4-30,78.3,68.9,59.4,49.1,26.3,0.7,58,27,6,29.87,29.73,32,9,32,0.00
2013-5-1,79.2,71.7,58.1,24.8,18.2,11.5,19,13,10,30.09,29.91,30,12,33,0.00
2013-5-2,86.4,73.9,61.2,37.9,23.4,9.7,35,15,11,30.15,30.06,26,8,26,0.00
2013-5-3,88.5,66.9,52.0,45.9,37.0,29.3,53,35,14,30.06,29.78,13,-2,13,0.00
2013-5-4,82.8,71.4,50.2,49.5,33.2,21.6,96,31,11,29.78,29.52,31,8,31,0.00
2013-5-5,61.0,53.0,47.3,49.5,47.0,44.2,97,81,58,29.83,29.55,16,4,16,0.00
2013-5-6,62.8,53.8,45.7,53.6,48.6,44.1,98,83,57,29.98,29.83,11,2,11,0.08
2013-5-7,65.8,56.7,50.5,53.4,49.7,47.5,95,78,59,30.04,29.96,14,4,14,0.00
2013-5-8,67.1,55.6,47.5,54.5,50.1,46.2,98,83,62,30.11,30.02,13,4,13,0.00
2013-5-9,72.3,58.4,47.3,57.0,51.6,46.2,98,80,56,30.14,30.06,14,4,14,0.00
2013-5-10,78.1,64.2,48.7,59.9,54.3,46.9,97,72,52,30.16,30.07,15,3,15,0.00
2013-5-11,86.4,72.3,55.0,62.2,55.0,45.5,89,57,30,30.11,30.03,10,3,12,0.00
2013-5-12,84.4,70.2,55.8,58.8,51.4,45.5,79,53,30,30.10,29.98,13,3,13,0.00
2013-5-13,82.8,67.0,50.0,59.5,51.3,43.7,83,58,41,30.05,29.92,13,2,14,0.00
2013-5-14,79.0,65.1,54.0,57.4,51.7,43.0,81,63,43,29.94,29.87,13,4,13,0.00
2013-5-15,75.2,59.1,46.6,48.0,44.3,41.0,82,60,35,30.01,29.91,14,4,14,0.00
2013-5-16,67.5,57.0,48.7,53.1,47.3,43.3,83,71,44,29.99,29.91,16,4,18,0.00
2013-5-17,69.3,55.0,39.9,47.1,42.8,37.8,96,67,34,30.05,29.93,13,3,14,0.00
2013-5-18,76.6,59.2,41.5,50.2,44.6,38.3,91,62,32,30.12,30.04,16,3,18,0.00
2013-5-19,81.1,68.4,57.4,44.4,34.3,18.0,62,31,13,30.12,29.99,18,6,21,0.00
2013-5-20,85.8,73.4,59.9,44.1,37.3,31.5,54,28,15,30.01,29.87,24,6,24,0.00
2013-5-21,68.7,59.1,44.4,45.0,41.3,36.3,74,53,37,29.94,29.83,20,4,20,0.00
2013-5-22,65.8,51.7,39.9,38.5,30.3,21.2,75,46,26,30.01,29.89,15,4,15,0.00
2013-5-23,68.4,52.8,37.9,43.2,38.6,34.9,92,62,35,30.01,29.88,15,2,15,0.00
2013-5-24,71.8,56.7,40.3,44.8,39.7,30.4,83,56,29,29.99,29.91,15,3,16,0.00
2013-5-25,71.4,56.1,40.1,49.5,43.3,36.5,93,65,38,30.00,29.92,15,3,15,0.00
2013-5-26,70.7,57.4,47.7,50.4,46.3,39.4,95,69,33,30.08,30.00,19,4,19,0.00
2013-5-27,56.1,52.3,47.1,52.3,47.9,40.6,98,85,67,30.09,29.99,14,3,14,0.08
2013-5-28,70.9,59.2,51.3,55.9,52.9,49.8,99,81,55,30.01,29.90,13,4,13,0.01
2013-5-29,74.1,61.0,49.3,52.0,48.8,44.1,88,66,40,29.94,29.87,16,4,17,0.00
2013-5-30,79.0,62.5,44.6,47.5,43.1,37.9,91,54,24,29.98,29.90,14,3,15,0.00
2013-5-31,89.6,73.8,58.5,50.5,44.6,35.2,59,37,19,30.00,29.90,17,4,17,0.00
2013-6-1,91.6,76.8,60.6,52.7,46.4,39.0,62,37,21,29.91,29.74,16,4,16,0.00
2013-6-2,86.4,71.4,57.6,57.4,50.8,42.4,76,50,34,29.74,29.62,12,3,12,0.00
2013-6-3,77.0,63.9,49.1,56.5,49.8,41.2,93,63,29,29.82,29.66,17,5,20,0.00
2013-6-4,68.7,58.1,49.3,54.3,49.6,45.0,96,74,56,29.92,29.81,15,5,15,0.00
2013-6-5,77.9,59.8,46.9,58.8,52.2,46.4,99,79,51,29.98,29.88,14,4,14,0.00
2013-6-6,85.6,64.7,50.9,61.5,54.3,48.4,95,72,42,29.91,29.82,12,3,12,0.00
2013-6-7,98.2,80.4,56.5,63.7,57.1,52.0,87,49,24,29.85,29.72,19,3,19,0.00
2013-6-8,100.0,82.6,63.0,65.8,56.7,50.9,68,44,22,29.72,29.64,16,5,16,0.00
2013-6-9,64.6,55.9,51.1,54.5,51.6,49.3,97,86,63,29.86,29.71,18,7,19,0.00
2013-6-10,54.1,51.9,50.2,53.6,51.3,49.6,100,98,92,29.97,29.74,16,4,22,0.04
2013-6-11,78.4,61.8,45.7,59.0,53.2,45.1,100,77,45,30.00,29.88,12,2,12,0.01
2013-6-12,80.6,63.7,45.0,51.8,44.2,34.3,95,54,20,29.95,29.88,17,3,17,0.00
2013-6-13,80.8,64.1,43.5,46.4,41.1,35.1,79,47,20,30.08,29.94,14,3,14,0.00
2013-6-14,86.4,72.5,60.4,45.3,36.1,21.4,55,28,11,29.99,29.80,20,5,22,0.00
2013-6-15,77.9,62.7,47.5,56.3,48.6,37.9,90,61,47,29.95,29.78,14,3,14,0.00
2013-6-16,84.2,67.6,48.9,51.3,44.9,38.5,74,47,22,30.05,29.94,16,3,17,0.00
2013-6-17,79.3,64.7,53.6,54.3,48.3,42.4,83,57,38,30.04,29.94,19,4,21,0.00
2013-6-18,70.9,57.9,48.2,49.5,45.5,37.4,95,67,31,29.98,29.91,19,4,20,0.00
2013-6-19,74.3,58.7,41.9,46.6,43.3,38.7,92,61,32,30.05,29.96,13,3,15,0.00
2013-6-20,79.2,64.8,50.2,47.3,42.7,36.0,77,48,24,29.99,29.91,16,3,17,0.00
2013-6-21,84.7,69.5,50.7,49.5,44.3,39.4,73,43,23,29.95,29.88,13,3,13,0.00
2013-6-22,87.3,73.0,55.0,52.0,44.3,37.2,66,38,22,29.90,29.78,16,4,16,0.00
2013-6-23,65.8,59.5,54.3,58.6,53.9,47.3,97,82,59,29.81,29.74,16,4,16,0.00
2013-6-24,56.8,54.0,51.4,56.3,53.5,51.1,100,98,95,29.91,29.75,11,3,12,0.22
2013-6-25,61.0,57.9,53.8,61.0,57.9,53.8,100,100,100,29.99,29.88,10,2,11,0.66
2013-6-26,73.8,64.7,59.0,66.4,61.4,58.8,100,90,66,30.06,29.98,11,3,11,0.03
2013-6-27,88.5,75.7,56.1,65.5,60.9,55.2,98,64,34,30.09,30.00,9,2,10,0.00
2013-6-28,96.4,81.2,64.8,68.0,59.5,49.1,89,52,22,30.02,29.88,15,2,15,0.00
2013-6-29,100.0,82.3,62.4,62.8,56.3,48.7,74,45,20,29.89,29.77,11,2,11,0.00
2013-6-30,95.9,81.0,65.5,67.3,59.5,53.8,71,50,31,29.80,29.72,11,2,11,0.00
2013-7-1,97.5,82.3,60.8,66.7,60.8,54.5,81,51,29,29.81,29.73,12,2,13,0.00
2013-7-2,91.4,79.3,65.8,67.5,61.3,57.0,76,55,38,29.84,29.77,13,3,13,0.00
2013-7-3,95.5,80.5,61.2,69.1,62.8,55.2,88,57,38,29.84,29.73,11,2,12,0.00
2013-7-4,98.1,87.6,71.4,67.6,56.6,43.0,74,36,24,29.74,29.61,16,4,16,0.00
2013-7-5,75.9,64.5,52.0,58.1,51.6,43.3,95,64,37,29.71,29.59,13,4,13,0.00
2013-7-6,77.7,60.0,50.2,59.4,53.7,49.6,99,82,53,29.79,29.71,11,4,11,0.00
2013-7-7,85.8,65.6,48.0,59.7,51.6,28.6,98,67,16,29.83,29.76,10,3,10,0.00
2013-7-8,87.4,67.1,47.5,57.6,50.1,27.1,98,62,13,29.94,29.82,11,2,13,0.00
2013-7-9,93.0,73.2,49.8,56.1,49.0,41.7,90,49,21,30.01,29.92,11,2,12,0.00
2013-7-10,86.7,74.2,54.9,58.3,47.8,32.0,84,41,20,29.94,29.83,14,3,14,0.00
2013-7-11,79.2,60.3,46.9,58.1,51.2,45.1,98,75,45,29.89,29.83,12,4,13,0.00
2013-7-12,80.4,61.7,48.7,59.5,53.7,48.6,100,78,48,29.92,29.86,11,3,12,0.00
2013-7-13,87.1,69.8,52.0,58.6,53.3,45.5,94,60,32,29.94,29.87,11,2,12,0.00
2013-7-14,84.0,67.5,51.8,60.1,53.0,44.1,85,62,43,29.94,29.86,11,2,11,0.00
2013-7-15,76.8,59.9,46.9,57.0,51.0,45.1,98,75,46,29.87,29.79,14,4,14,0.00
2013-7-16,69.1,55.9,47.5,54.7,50.9,47.1,99,85,56,30.01,29.82,15,5,15,0.00
2013-7-17,83.3,65.5,46.9,60.1,53.6,43.9,99,70,27,30.08,30.00,11,3,12,0.01
2013-7-18,87.6,70.6,51.3,59.9,53.0,41.0,89,58,21,30.03,29.90,13,2,13,0.00
2013-7-19,90.0,74.6,57.6,62.6,55.8,50.2,78,54,33,29.90,29.78,12,2,12,0.00
2013-7-20,88.5,74.6,60.8,63.0,57.3,52.7,81,57,34,29.78,29.69,10,3,10,0.00
2013-7-21,84.7,69.2,58.3,61.0,55.6,45.1,86,63,44,29.84,29.69,13,4,13,0.00
2013-7-22,85.5,69.7,60.4,59.2,52.0,40.3,77,55,33,29.94,29.84,13,4,13,0.00
2013-7-23,82.0,72.0,63.3,58.1,48.6,34.0,57,44,28,29.97,29.89,12,3,12,0.00
2013-7-24,91.2,76.8,64.6,60.4,55.1,49.8,74,49,26,29.94,29.87,13,3,13,0.00
2013-7-25,87.1,74.1,61.9,61.5,56.2,52.0,79,54,41,29.95,29.86,12,3,12,0.00
2013-7-26,86.4,70.9,60.3,61.7,55.8,52.3,75,60,42,30.03,29.93,12,3,12,0.00
2013-7-27,82.8,66.8,56.8,60.8,55.6,50.7,86,69,47,29.96,29.82,12,3,12,0.00
2013-7-28,78.3,62.1,51.3,59.2,53.6,49.1,96,76,51,29.83,29.76,12,4,12,0.00
2013-7-29,73.6,56.9,47.7,57.2,51.8,47.1,99,85,55,29.99,29.79,15,4,15,0.00
2013-7-30,80.8,61.7,46.2,59.7,53.2,45.7,99,77,46,30.09,29.99,12,3,12,0.00
2013-7-31,79.3,62.4,48.4,57.9,52.3,46.0,98,72,47,30.05,29.96,15,3,15,0.00
2013-8-1,79.9,62.9,49.8,55.4,50.6,46.6,90,66,40,30.02,29.94,9,4,15,0.00
2013-8-2,83.5,66.2,50.0,56.3,50.3,42.3,82,59,37,29.95,29.87,11,2,12,0.00
2013-8-3,79.9,62.2,47.8,58.8,53.3,46.9,99,75,48,29.94,29.87,10,2,10,0.00
2013-8-4,78.6,60.2,48.2,58.3,52.5,47.5,99,79,49,29.97,29.92,10,3,10,0.00
2013-8-5,80.1,60.8,44.1,57.6,51.8,43.3,99,76,44,30.00,29.92,11,3,11,0.01
2013-8-6,75.6,58.8,45.9,56.5,51.1,45.0,98,78,48,30.00,29.93,14,4,16,0.00
2013-8-7,68.7,56.1,48.9,55.9,52.1,48.7,99,87,63,30.08,30.00,15,5,17,0.00
2013-8-8,77.2,60.6,49.6,57.9,53.2,49.1,99,80,43,30.02,29.91,13,3,14,0.00
2013-8-9,76.5,59.5,48.4,57.9,52.3,47.5,99,80,50,29.96,29.88,14,3,16,0.00
2013-8-10,79.0,61.9,49.3,58.8,54.0,48.7,99,78,46,30.02,29.96,13,3,13,0.01
2013-8-11,81.7,65.1,50.5,59.5,54.4,49.1,98,71,42,29.99,29.91,13,2,13,0.00
2013-8-12,82.9,66.7,51.6,57.6,53.0,48.2,94,64,36,29.96,29.89,11,2,12,0.00
2013-8-13,90.3,73.1,54.1,55.6,48.5,41.7,80,46,19,29.97,29.88,12,2,12,0.00
2013-8-14,88.2,71.5,52.7,57.7,51.3,43.3,77,51,34,29.93,29.85,11,2,12,0.00
2013-8-15,88.3,71.6,55.0,62.8,58.7,51.8,91,66,38,29.92,29.86,11,2,14,0.00
2013-8-16,89.2,74.6,63.0,63.9,57.5,42.1,90,60,23,29.94,29.89,13,3,13,0.00
2013-8-17,82.6,70.4,57.6,61.5,56.7,50.5,81,63,44,29.94,29.82,9,2,10,0.00
2013-8-18,95.2,79.5,60.6,63.3,57.5,53.6,78,49,31,29.86,29.75,11,2,11,0.00
2013-8-19,90.1,78.5,64.2,64.8,59.6,55.8,75,53,38,29.86,29.77,12,2,12,0.00
2013-8-20,84.9,68.0,57.2,63.9,56.3,45.5,89,68,46,29.86,29.76,13,4,13,0.00
2013-8-21,81.7,65.9,53.4,58.8,51.9,38.5,98,65,36,29.90,29.82,13,4,13,0.00
2013-8-22,76.5,64.0,52.3,57.2,52.2,43.0,94,67,44,29.93,29.84,13,4,13,0.00
2013-8-23,80.8,64.4,50.2,59.5,54.2,47.8,96,72,46,29.90,29.78,12,2,12,0.00
2013-8-24,81.9,66.1,56.1,57.2,52.6,47.7,81,63,41,29.86,29.79,15,3,16,0.00
2013-8-25,77.4,64.8,55.8,60.8,56.4,52.7,95,76,51,29.91,29.84,14,3,14,0.00
2013-8-26,83.1,65.6,54.5,59.5,54.5,51.3,100,72,36,29.99,29.88,11,3,11,0.00
2013-8-27,85.3,68.0,51.6,55.8,51.7,47.5,89,60,30,29.89,29.78,13,2,13,0.00
2013-8-28,84.7,69.1,58.3,61.7,55.9,50.4,85,65,41,29.90,29.80,13,3,13,0.00
2013-8-29,83.8,67.1,57.4,61.3,58.5,56.5,98,78,40,30.02,29.89,15,4,15,0.00
2013-9-9,96.1,87.4,73.9,57.2,48.3,45.1,38,27,18,29.95,29.86,13,4,13,0.00
2013-9-10,78.3,66.9,55.6,60.1,53.5,46.6,98,65,39,30.00,29.86,18,4,18,0.00
2013-9-11,67.6,59.1,54.9,59.7,56.6,54.5,100,92,74,30.10,30.00,18,5,18,0.00
2013-9-12,81.9,65.2,53.4,62.8,57.9,53.1,100,80,45,30.08,29.99,13,3,13,0.00
2013-9-13,84.0,69.8,55.8,61.2,57.0,53.1,93,66,44,30.01,29.87,11,2,11,0.00
2013-9-14,80.2,66.7,54.5,59.5,55.3,50.9,89,68,48,29.92,29.85,11,3,11,0.00
2013-9-15,78.3,62.7,51.1,56.5,53.2,49.5,97,74,40,29.97,29.86,18,4,18,0.00
2013-9-16,82.2,65.2,49.5,59.4,54.2,48.4,99,71,40,30.01,29.89,13,2,13,0.01
2013-9-17,75.7,62.4,51.1,52.9,50.4,47.1,94,68,41,30.01,29.89,15,4,15,0.00
2013-9-18,82.2,67.8,55.9,48.7,43.1,30.2,63,43,17,30.04,29.95,19,4,19,0.00
2013-9-19,86.9,67.4,48.7,44.4,38.1,22.1,71,40,16,30.00,29.90,14,2,14,0.00
2013-9-20,73.6,61.2,50.5,58.3,48.5,31.1,94,64,37,29.95,29.87,19,4,19,0.00
2013-9-21,63.3,56.5,49.8,58.1,53.8,47.7,100,91,69,29.99,29.90,16,3,16,0.95
2013-9-22,69.4,56.9,45.1,53.2,48.1,44.2,98,75,43,30.11,29.99,12,2,13,0.00
2013-9-23,78.6,64.2,49.8,58.5,53.0,46.9,92,69,40,30.14,30.05,11,2,12,0.00
2013-9-24,73.0,59.8,51.4,53.6,49.1,44.4,92,70,41,30.09,29.98,20,3,20,0.00
2013-9-25,66.0,55.5,47.8,45.9,42.1,38.5,82,63,37,30.02,29.92,13,4,16,0.00
2013-9-26,69.4,58.9,51.3,39.4,34.2,28.6,61,41,25,30.12,29.95,24,6,24,0.00
2013-9-27,76.1,62.4,53.4,38.8,33.5,29.5,56,35,20,30.20,30.12,17,4,17,0.00
2013-9-28,78.1,60.7,45.3,51.6,39.4,31.6,88,50,22,30.20,30.12,13,2,13,0.00
2013-9-29,66.9,58.0,53.4,59.2,55.5,51.1,99,92,73,30.19,30.14,18,4,18,0.03
2013-9-30,64.6,59.1,54.9,63.0,58.2,50.4,100,97,85,30.16,30.06,14,3,14,0.07
2013-10-1,72.3,56.5,42.4,53.8,47.6,41.9,100,75,42,30.11,30.04,9,1,9,0.01
2013-10-2,72.9,59.7,48.4,49.6,43.3,32.9,87,57,28,30.11,30.04,16,3,16,0.00
2013-10-3,66.0,58.4,48.9,35.4,30.4,23.9,55,36,21,30.17,30.10,29,8,29,0.00
2013-10-4,73.2,64.2,55.8,27.7,25.1,21.0,32,23,15,30.23,30.11,34,11,34,0.00
2013-10-5,80.8,66.6,51.4,35.8,25.0,19.8,51,22,11,30.32,30.23,20,5,23,0.00
2013-10-6,80.4,63.5,48.6,38.1,31.9,25.0,57,34,14,30.25,30.13,11,1,11,0.00
2013-10-7,78.6,62.5,46.8,38.8,31.4,21.0,63,35,13,30.13,30.00,12,2,12,0.00
2013-10-8,73.2,63.4,50.5,43.9,38.0,33.3,64,40,27,30.02,29.81,15,4,15,0.00
2013-10-9,67.5,56.5,43.3,40.6,36.6,32.5,85,50,30,29.89,29.72,22,4,22,0.00
2013-10-10,69.3,58.6,48.2,45.9,40.2,33.1,75,52,38,30.09,29.88,14,3,16,0.00
2013-10-11,68.5,54.0,42.1,49.5,42.9,37.6,95,69,43,30.16,30.07,11,2,11,0.00
2013-10-12,69.4,55.8,44.1,48.4,43.4,38.8,87,65,34,30.09,29.99,13,2,15,0.00
2013-10-13,69.8,57.8,46.2,43.0,36.2,30.7,64,47,24,30.17,30.02,18,5,18,0.00
2013-10-14,73.8,61.8,47.7,37.6,33.9,27.1,55,36,19,30.23,30.13,17,4,20,0.00
2013-10-15,74.1,66.2,59.5,29.8,26.8,21.0,30,23,15,30.17,30.09,26,8,30,0.00
2013-10-16,78.3,66.8,52.7,34.5,28.6,24.6,45,24,17,30.21,30.12,14,3,14,0.00
2013-10-17,79.0,62.0,48.9,36.9,33.5,30.0,56,37,19,30.20,30.10,12,1,12,0.00
2013-10-18,79.5,62.6,46.9,40.8,36.3,32.9,65,40,21,30.17,30.11,12,2,12,0.00
2013-10-19,81.3,65.7,51.6,40.1,37.4,33.4,60,37,18,30.20,30.13,10,2,10,0.00
2013-10-20,79.9,64.1,50.2,46.6,38.9,34.0,62,42,22,30.15,30.04,10,2,10,0.00
2013-10-21,78.1,64.5,51.3,48.9,42.4,35.6,69,47,24,30.10,30.04,14,2,14,0.00
2013-10-22,80.4,62.4,49.6,48.6,42.6,37.6,76,52,22,30.13,30.05,8,2,10,0.00
2013-10-23,78.3,62.4,48.6,49.1,41.9,34.2,73,49,23,30.07,30.01,11,2,11,0.00
2013-10-24,66.9,55.2,44.2,48.2,44.1,37.4,86,67,41,30.17,30.05,11,2,11,0.00
2013-10-25,73.0,57.3,44.1,48.9,43.4,37.4,86,62,38,30.26,30.17,10,2,10,0.00
2013-10-26,80.8,61.4,46.0,46.2,40.0,30.7,75,50,19,30.25,30.14,9,1,9,0.00
2013-10-27,60.8,52.0,44.8,47.7,41.8,34.5,84,69,47,30.14,29.71,16,4,16,0.00
2013-10-28,60.6,47.5,35.1,43.3,39.5,32.7,95,76,45,29.92,29.75,12,2,12,0.00
2013-10-29,56.5,47.1,38.1,45.7,42.0,37.0,99,84,60,30.14,29.92,9,1,9,0.04
2013-10-30,63.1,48.4,37.2,46.4,41.3,35.8,98,79,53,30.24,30.14,10,1,10,0.00
2013-10-31,70.9,53.2,39.7,46.6,42.1,37.4,95,70,38,30.26,30.18,9,1,9,0.00
2013-11-1,72.0,58.6,46.2,43.9,41.3,37.8,80,55,33,30.26,30.14,14,2,14,0.00
2013-11-2,69.4,57.2,44.4,48.6,41.8,37.6,80,58,37,30.14,30.01,16,3,16,0.00
2013-11-3,59.7,52.3,45.9,38.1,24.4,14.9,55,35,19,30.14,30.01,20,6,20,0.00
2013-11-4,63.7,54.6,47.5,32.4,25.4,20.1,43,33,19,30.19,30.00,28,9,28,0.00
2013-11-5,70.2,57.7,45.7,35.4,31.9,28.2,60,38,26,30.32,30.18,21,5,22,0.00
2013-11-6,69.1,57.9,45.7,41.2,38.1,32.7,64,48,35,30.36,30.27,11,2,11,0.00
2013-11-7,70.9,57.7,47.1,41.0,38.3,34.7,72,50,30,30.28,30.18,11,2,11,0.00
2013-11-8,70.5,57.1,45.7,48.6,43.2,38.1,83,61,42,30.19,30.06,10,2,11,0.00
2013-11-9,70.0,58.7,46.2,44.4,42.1,38.3,79,55,33,30.15,30.09,12,3,12,0.00
2013-11-10,65.7,52.3,42.3,48.6,42.1,35.2,89,69,44,30.20,30.13,10,1,10,0.00
2013-11-11,67.8,53.1,39.7,44.4,39.9,33.3,87,62,34,30.28,30.17,7,1,7,0.00
2013-11-12,68.5,58.3,49.3,44.6,40.4,36.3,67,52,32,30.37,30.26,9,1,9,0.00
2013-11-13,76.5,61.6,48.0,49.3,44.4,37.4,78,55,35,30.35,30.20,10,2,10,0.00
2013-11-14,64.8,56.7,46.4,49.8,43.8,33.6,79,62,50,30.20,29.96,9,2,9,0.00
2013-11-15,64.8,52.7,42.8,38.3,33.3,24.6,76,50,22,29.97,29.83,21,4,21,0.00
2013-11-16,61.9,48.7,36.5,44.1,39.2,32.2,90,71,46,30.01,29.84,17,3,17,0.00
2013-11-17,59.0,46.6,37.8,46.8,41.4,36.1,96,83,62,30.17,30.01,10,2,10,0.00
2013-11-18,52.9,44.9,36.9,46.2,41.7,35.8,98,89,72,30.22,30.15,10,2,10,0.01
2013-11-19,51.6,48.3,44.6,51.6,48.0,43.9,100,99,95,30.18,30.02,10,2,10,0.49
2013-11-20,52.9,51.2,47.1,52.7,51.2,47.1,100,100,100,30.02,29.93,18,2,18,0.26
2013-11-21,53.8,49.3,45.3,47.5,25.4,10.6,100,44,21,30.10,29.98,40,15,40,0.00
2013-11-22,64.0,56.4,48.7,11.8,6.7,0.7,22,14,9,30.13,30.04,39,17,39,0.00
2013-11-23,63.0,54.5,40.3,34.0,16.5,7.5,55,25,13,30.19,30.07,30,8,30,0.00
2013-11-24,59.4,48.4,37.6,39.6,32.7,22.6,91,57,34,30.33,30.18,10,2,10,0.00
2013-11-25,60.4,46.4,36.7,40.3,37.1,33.8,92,72,38,30.40,30.32,9,2,9,0.00
2013-11-26,58.3,50.1,42.6,39.2,33.9,30.9,73,54,40,30.35,30.14,9,3,9,0.00
2013-11-27,58.1,52.2,48.0,39.6,35.2,30.2,60,52,45,30.14,29.97,10,5,13,0.00
2013-11-28,66.4,56.3,44.2,41.5,37.5,34.9,77,50,33,30.18,29.99,12,4,12,0.00
2013-11-29,65.8,53.2,42.4,41.7,38.7,36.0,84,60,36,30.31,30.17,13,2,14,0.00
2013-11-30,66.4,52.5,41.5,43.7,39.2,36.7,86,63,34,30.36,30.29,11,2,11,0.00
2013-12-1,67.8,59.0,46.2,44.8,41.0,37.9,81,53,37,30.43,30.32,13,3,14,0.00
2013-12-2,60.8,52.4,42.6,48.7,42.4,33.4,96,71,43,30.32,30.03,14,3,14,0.00
2013-12-3,49.8,43.9,39.7,48.7,29.3,11.5,97,60,25,30.03,29.92,23,4,23,0.00
2013-12-4,45.0,36.5,26.1,18.1,12.8,6.1,51,38,24,30.13,30.00,23,6,23,0.00
2013-12-5,44.8,36.4,28.4,27.1,14.0,6.4,78,42,28,30.19,30.12,15,4,15,0.00
2013-12-6,40.5,33.2,22.5,38.8,28.5,20.1,98,84,53,30.21,29.96,15,2,15,0.53
2013-12-7,38.8,33.9,25.7,38.1,24.4,17.2,98,70,44,30.28,29.96,22,3,22,0.00
2013-12-8,39.4,32.6,25.2,25.2,17.2,4.3,91,55,26,30.34,30.26,19,6,23,0.00
2013-12-9,47.7,38.6,27.9,18.0,9.2,-0.0,65,31,19,30.45,30.32,29,8,30,0.00
2013-12-10,54.0,40.9,33.3,26.2,18.6,11.8,69,42,25,30.45,30.27,18,4,18,0.00
2013-12-11,55.2,46.8,33.4,28.0,25.1,23.0,66,43,31,30.31,30.25,21,6,21,0.00
2013-12-12,58.3,48.4,36.7,32.4,26.8,21.9,72,44,31,30.33,30.25,11,3,11,0.00
2013-12-13,60.4,48.6,35.4,33.8,29.2,23.4,73,49,29,30.39,30.29,13,3,13,0.00
2013-12-14,58.6,50.9,37.0,35.6,31.9,29.8,81,49,34,30.47,30.38,14,4,14,0.00
2013-12-15,64.4,52.6,41.4,36.5,30.7,26.2,69,44,31,30.44,30.34,14,4,14,0.00
2013-12-16,68.7,61.1,52.2,36.1,25.2,18.9,43,26,19,30.34,30.23,23,8,23,0.00
2013-12-17,65.3,57.9,48.4,34.2,28.8,22.8,53,34,24,30.27,30.14,11,4,11,0.00
2013-12-18,60.6,52.6,44.1,41.0,34.5,27.7,77,52,33,30.14,29.82,12,3,12,0.00
2013-12-19,51.4,46.3,41.4,36.5,22.9,8.2,78,42,23,30.03,29.79,37,11,37,0.00
2013-12-20,62.6,50.0,42.3,27.0,8.6,-8.7,50,22,8,30.09,29.99,26,7,30,0.00
2013-12-21,61.7,51.7,37.8,45.3,39.1,25.5,87,63,47,30.19,30.05,15,3,15,0.00
2013-12-22,68.9,60.2,54.9,40.8,37.0,31.1,50,42,34,30.37,30.19,25,8,25,0.00
2013-12-23,64.6,53.7,44.2,41.4,38.6,35.4,76,57,41,30.48,30.37,10,3,11,0.00
2013-12-24,69.1,58.6,45.3,41.4,33.1,21.4,70,40,21,30.42,30.31,24,6,24,0.00
2013-12-25,64.9,57.7,46.2,27.5,22.8,17.6,41,26,20,30.40,30.31,27,7,27,0.00
2013-12-26,66.0,56.5,44.8,27.0,24.0,18.7,47,29,20,30.36,30.28,17,5,17,0.00
2013-12-27,61.3,50.0,39.0,31.6,26.7,23.0,60,41,26,30.33,30.21,8,1,8,0.00
2013-12-28,66.4,55.6,36.3,28.4,21.9,14.7,63,29,16,30.24,30.15,23,9,25,0.00
2013-12-29,63.3,56.9,49.8,17.2,11.4,3.7,25,17,11,30.28,30.18,30,8,30,0.00
2013-12-30,62.4,51.0,38.8,32.2,24.1,14.7,64,37,22,30.34,30.27,11,2,11,0.00
2013-12-31,61.9,49.6,37.9,29.5,25.4,17.2,66,41,18,30.35,30.25,11,2,11,0.00
2014-1-1,67.1,53.8,41.5,33.8,26.6,19.9,52,36,22,30.30,30.23,12,2,12,0.00
2014-1-2,64.0,55.0,43.3,35.6,31.6,27.5,60,42,31,30.28,30.17,14,4,14,0.00